Location: Sevilla
(37.3933°N, 5.9839°W)
Time: 23:04:11
(UTC+02:00)

Transit 2A - All Passes

Search period start: 25 June 2024 00:00
Search period end: 05 July 2024 00:00
Orbit: 592 x 959 km, 66.7° (Epoch: 25 June)

Date Brightness Start Highest point End Pass type
(mag) Time Alt. Az. Time Alt. Az. Time Alt. Az.
25 Jun - 00:54:03 10° N 00:59:27 30° NE 01:04:54 10° ESE visible
25 Jun - 02:36:49 10° NW 02:42:50 50° WSW 02:48:53 10° S visible
25 Jun - 15:32:09 10° SSE 15:36:04 25° ESE 15:40:19 10° NE daylight
25 Jun - 17:14:25 10° WSW 17:18:55 36° NW 17:23:56 10° NNE daylight
26 Jun - 00:19:15 10° N 00:23:56 22° NE 00:28:41 10° E visible
26 Jun - 02:01:25 10° NNW 02:07:40 73° WSW 02:13:57 10° SSE visible
26 Jun - 14:58:12 10° SE 15:01:06 16° ESE 15:04:12 10° ENE daylight
26 Jun - 16:38:48 10° SW 16:43:34 54° WNW 16:48:53 10° NNE daylight
26 Jun - 23:44:39 10° N 23:48:20 16° NE 23:52:04 10° E visible
27 Jun - 01:26:09 10° NNW 01:32:27 80° ENE 01:38:47 10° SSE visible
27 Jun - 03:11:21 10° WNW 03:14:55 16° WSW 03:18:27 10° SW visible
27 Jun - 16:03:26 10° SSW 16:08:16 83° WNW 16:13:43 10° NNE daylight
27 Jun - 17:50:02 10° WNW 17:52:25 13° NW 17:54:53 10° NNW daylight
27 Jun - 23:10:37 10° NNE 23:12:40 12° NE 23:14:43 10° ENE visible
28 Jun - 00:50:59 10° NNW 00:57:09 56° ENE 01:03:21 10° SE visible
28 Jun - 02:35:04 10° NW 02:39:56 24° WSW 02:44:46 10° SSW visible
28 Jun - 15:28:19 10° SSW 15:33:04 63° ESE 15:38:24 10° NE daylight
28 Jun - 17:13:17 10° W 17:16:47 18° NW 17:20:32 10° N daylight
29 Jun - 00:15:55 10° NNW 00:21:47 40° NE 00:27:41 10° ESE visible
29 Jun - 01:59:15 10° NW 02:04:52 35° WSW 02:10:28 10° S visible
29 Jun - 14:53:29 10° S 14:57:57 39° ESE 15:02:55 10° NE daylight
29 Jun - 16:37:03 10° WSW 16:41:14 26° NW 16:45:48 10° N daylight
29 Jun - 23:40:57 10° N 23:46:20 29° NE 23:51:45 10° ESE visible
30 Jun - 01:23:41 10° NW 01:29:46 51° WSW 01:35:49 10° S visible
30 Jun - 14:19:00 10° SSE 14:22:56 25° ESE 14:27:12 10° NE daylight
30 Jun - 16:01:11 10° WSW 16:05:46 37° NW 16:10:52 10° NNE daylight
30 Jun - 23:06:09 10° N 23:10:49 21° NE 23:15:31 10° E visible
01 Jul - 00:48:17 10° NNW 00:54:35 74° WSW 01:00:52 10° SSE visible
01 Jul - 13:45:04 10° SE 13:47:58 16° ESE 13:51:02 10° ENE daylight
01 Jul - 15:25:34 10° SW 15:30:23 56° WNW 15:35:48 10° NNE daylight
01 Jul - 22:31:34 10° N 22:35:12 16° NE 22:38:52 10° E visible
02 Jul - 00:13:01 10° NNW 00:19:21 78° ENE 00:25:40 10° SSE visible
02 Jul - 01:58:09 10° WNW 02:01:48 16° WSW 02:05:27 10° SW visible
02 Jul - 14:50:13 10° SSW 14:55:06 86° WNW 15:00:37 10° NNE daylight
02 Jul - 16:36:39 10° WNW 16:39:14 14° NW 16:41:55 10° NNW daylight
02 Jul - 21:57:34 10° NNE 21:59:30 11° NE 22:01:27 10° ENE daylight
02 Jul - 23:37:51 10° NNW 23:44:02 55° ENE 23:50:13 10° SE visible
03 Jul - 01:21:53 10° NW 01:26:49 24° WSW 01:31:42 10° SSW visible
03 Jul - 14:15:07 10° SSW 14:19:54 61° ESE 14:25:17 10° NE daylight
03 Jul - 15:59:58 10° W 16:03:36 19° NW 16:07:29 10° N daylight
03 Jul - 23:02:47 10° NNW 23:08:39 39° NE 23:14:31 10° ESE visible
04 Jul - 00:46:06 10° NW 00:51:46 36° WSW 00:57:23 10° S visible
04 Jul - 13:40:17 10° S 13:44:48 39° ESE 13:49:47 10° NE daylight
04 Jul - 15:23:46 10° WSW 15:28:02 27° NW 15:32:43 10° N daylight
04 Jul - 22:27:50 10° N 22:33:11 28° NE 22:38:33 10° ESE visible
